This is the latest recevied weather packets stored in our database for station/object N4DBJ. If no packets are shown the sender has not sent any weather packets the latest 10 day(s).
| Time | Temp. | Humidity | Pressure | Rain* | Wind** | Luminosity | Snow |
|---|---|---|---|---|---|---|---|
| 1778018833 | 22.78° C | 56% | 1006.2 hPa | 0 mm | - | 152 W/m² | - |
| 1778018530 | 23.33° C | 54% | 1005.9 hPa | 0 mm | - | 269 W/m² | - |
| 1778018228 | 22.78° C | 55% | 1005.9 hPa | 0 mm | - | 250 W/m² | - |
| 1778017926 | 22.78° C | 55% | 1005.6 hPa | 0 mm | - | 162 W/m² | - |
| 1778017623 | 22.78° C | 57% | 1005.9 hPa | 0 mm | - | 235 W/m² | - |
| 1778017321 | 23.33° C | 55% | 1006 hPa | 0 mm | - | 150 W/m² | - |
| 1778017018 | 22.78° C | 56% | 1005.8 hPa | 0 mm | - | 260 W/m² | - |
| 1778016715 | 23.33° C | 54% | 1006.1 hPa | 0 mm | - | 185 W/m² | - |
| 1778016411 | 23.33° C | 54% | 1006 hPa | 0 mm | - | 184 W/m² | - |
| 1778016108 | 23.33° C | 54% | 1006 hPa | 0 mm | - | 265 W/m² | - |
| 1778015805 | 23.89° C | 56% | 1006 hPa | 0 mm | - | 244 W/m² | - |
| 1778015502 | 23.89° C | 53% | 1006.1 hPa | 0 mm | - | 206 W/m² | - |
| 1778015199 | 23.89° C | 53% | 1005.9 hPa | 0 mm | - | 325 W/m² | - |
| 1778014896 | 24.44° C | 52% | 1006 hPa | 0 mm | - | 343 W/m² | - |
| 1778014593 | 23.89° C | 52% | 1006.1 hPa | 0 mm | - | 535 W/m² | - |
| 1778014291 | 23.89° C | 54% | 1005.6 hPa | 0 mm | - | 508 W/m² | - |
| 1778013988 | 23.89° C | 54% | 1005.5 hPa | 0 mm | - | 480 W/m² | - |
| 1778013686 | 23.89° C | 54% | 1005.5 hPa | 0 mm | - | 450 W/m² | - |
| 1778013382 | 23.89° C | 56% | 1005.6 hPa | 0 mm | - | 350 W/m² | - |
| 1778013080 | 23.33° C | 55% | 1006 hPa | 0 mm | - | 657 W/m² | - |
| 1778012775 | 23.33° C | 55% | 1006.1 hPa | 0 mm | - | 233 W/m² | - |
| 1778012471 | 23.89° C | 55% | 1006.1 hPa | 0 mm | - | 615 W/m² | - |
| 1778012168 | 23.89° C | 56% | 1006 hPa | 0 mm | - | 540 W/m² | - |
| 1778011866 | 23.89° C | 54% | 1006.4 hPa | 0 mm | - | 644 W/m² | - |
| 1778011563 | 23.89° C | 54% | 1006.5 hPa | 0 mm | - | 624 W/m² | - |
* Rain latest hour (hover to see other rain measurements)
** Current wind speed in m/s (hover to see current wind gust speed)